Weather History for Chillicothe, MO

Change the Weather History Date:

Saturday, April 6, 2013

  Actual Average (KIRK) Record (KIRK)
Temperature  
Mean Temperature 63 °F 49 °F  
Max Temperature 75 °F 60 °F 84 °F (1954)
Min Temperature 51 °F 38 °F 15 °F (1982)
Degree Days  
Heating Degree Days 2 16  
Month to date heating degree days 103  
Since 1 July heating degree days 5390  
Cooling Degree Days 0 0  
Month to date cooling degree days 0  
Year to date cooling degree days 0  
Growing Degree Days 13 (Base 50)    
Moisture  
Dew Point 41 °F    
Average Humidity 48    
Maximum Humidity 74    
Minimum Humidity 32    
Precipitation  
Precipitation 0.00 in 0.08 in 1.87 in (1947)
Month to date precipitation 0.42  
Year to date precipitation 5.77  
Sea Level Pressure  
Sea Level Pressure 29.75 in    
Wind  
Wind Speed 10 mph (SSW)    
Max Wind Speed 21 mph    
Max Gust Speed 34 mph    
T = Trace of Precipitation, MM = Missing Value Source: NWS Daily Summary

Daily Weather History Graph

Daily Weather History Graph

Search for Another Location

Airport:

Trip Planner

Search our weather history database for the weather conditions in past years. The results will help you decide how hot, cold, wet, or windy it might be!

Date:

Astronomy

Apr. 06, 2013 Rise Set
Actual Time 6:50 AM CDT 7:43 PM CDT
Civil Twilight 6:22 AM CDT 8:11 PM CDT
Nautical Twilight 5:50 AM CDT 8:44 PM CDT
Astronomical Twilight 5:16 AM CDT 9:17 PM CDT
Moon 4:33 AM CDT (4/6) 4:13 PM CDT (4/6)
Length of Visible Light 13h 48m
Length of Day
12h 53m
Waning Crescent, 15% of the Moon is Illuminated
Apr 6
Waning Crescent
Apr 10
New
Apr 18
First Quarter
Apr 25
Full
May 2
Last Quarter

Hourly Weather History & Observations

Time (CDT) Temp. Dew Point Humidity Pressure Visibility Wind Dir Wind Speed Gust Speed Precip Events Conditions
12:52 AM 57.9 °F 39.9 °F 51% 29.88 in - SSE 8.1 mph - N/A   Unknown
1:52 AM 57.0 °F 39.9 °F 53% 29.87 in - SSE 9.2 mph - N/A   Unknown
2:52 AM 55.0 °F 39.0 °F 55% 29.84 in - SSE 8.1 mph - N/A   Unknown
3:52 AM 55.9 °F 37.9 °F 51% 29.82 in - SSE 8.1 mph - N/A   Unknown
4:52 AM 57.0 °F 37.0 °F 47% 29.81 in - SSE 9.2 mph - N/A   Unknown
5:52 AM 55.9 °F 36.0 °F 47% 29.80 in - SSE 9.2 mph - N/A   Unknown
6:52 AM 55.9 °F 36.0 °F 47% 29.78 in - SSE 9.2 mph - N/A   Unknown
7:52 AM 55.9 °F 37.9 °F 51% 29.77 in - SSE 9.2 mph - N/A   Unknown
8:52 AM 59.0 °F 39.9 °F 49% 29.76 in - South 15.0 mph - N/A   Unknown
9:52 AM 59.0 °F 41.0 °F 51% 29.74 in - SSW 11.5 mph - N/A   Unknown
10:52 AM 62.1 °F 43.0 °F 50% 29.72 in - South 16.1 mph 24.2 mph N/A   Unknown
11:52 AM 64.9 °F 44.1 °F 47% 29.69 in - SSW 18.4 mph 32.2 mph N/A   Unknown
12:52 PM 68.0 °F 45.0 °F 43% 29.67 in - SW 20.7 mph 34.5 mph N/A   Unknown
1:52 PM 69.1 °F 45.0 °F 42% 29.65 in - SW 15.0 mph 31.1 mph N/A   Unknown
2:52 PM 69.1 °F 46.9 °F 45% 29.65 in - SW 17.3 mph 25.3 mph N/A   Unknown
3:52 PM 71.1 °F 46.9 °F 42% 29.62 in - SW 11.5 mph 25.3 mph N/A   Unknown
4:52 PM 73.0 °F 46.9 °F 39% 29.62 in - SW 11.5 mph 21.9 mph N/A   Unknown
5:52 PM 73.9 °F 43.0 °F 33% 29.65 in - West 15.0 mph 25.3 mph N/A   Unknown
6:52 PM 71.1 °F 39.9 °F 32% 29.69 in - WNW 6.9 mph 18.4 mph N/A   Unknown
7:52 PM 66.9 °F 39.9 °F 37% 29.73 in - WNW 5.8 mph - N/A   Unknown
8:52 PM 61.0 °F 39.9 °F 46% 29.76 in - West 3.5 mph - N/A   Unknown
9:52 PM 55.0 °F 41.0 °F 59% 29.78 in - Calm Calm - N/A   Unknown
10:52 PM 53.1 °F 41.0 °F 64% 29.79 in - Calm Calm - N/A   Unknown
11:52 PM 51.1 °F 43.0 °F 74% 29.81 in - Calm Calm - N/A   Unknown